Regional Weather Roundup
Issued by NWS Newport/Morehead, NC

Home | Current Version | Previous Version | Text Only | Print | Product List | Glossary On
Versions: 1 2 3 4 5 6 7 8 9 10 11 12 13 14 15 16 17 18 19 20 21 22 23 24 25 26 27 28 29 30 31 32 33 34 35 36 37 38 39 40 41 42 43 44 45 46 47 48 49 50
297
ASUS42 KMHX 270325
RWRMHX
WEATHER ROUNDUP FOR EASTERN NORTH CAROLINA
NATIONAL WEATHER SERVICE NEWPORT/MOREHEAD CITY NC
1100 PM EDT WED APR 26 2017

NOTE: "FAIR" INDICATES FEW OR NO CLOUDS BELOW 12,000 FEET
WITH NO SIGNIFICANT WEATHER AND/OR OBSTRUCTIONS TO VISIBILITY

NCZ015>017-031-032-045>047-102-103-270400-
NORTH COAST

CITY           SKY/WX    TMP DP  RH WIND       PRES   REMARKS
EDENTON        MOCLDY    70  65  85 CALM      29.86S
ELIZABETH CITY CLEAR     66  65  96 SE6       29.86S
KITTY HAWK     PTCLDY    62  62 100 CALM      29.86S
MANTEO         CLEAR     67  65  94 SW8       29.88R

$$

NCZ045>047-081-094-103-104-270400-
CENTRAL COAST

CITY           SKY/WX    TMP DP  RH WIND       PRES   REMARKS
FRISCO         PTCLDY    71  65  81 SW5       29.89R HAZE

$$

NCZ095-097-098-100-101-270400-
SOUTHERN COAST

CITY           SKY/WX    TMP DP  RH WIND       PRES   REMARKS
BEAUFORT       CLEAR     71  70  96 SW10      29.88R
CEDAR ISLAND   NOT AVBL
JACKSONVILLE   CLEAR     69  67  93 S7        29.87R
PINEY ISLAND   CLEAR    N/A N/A N/A S9        29.88R
WILMINGTON     CLEAR     70  63  78 S10       29.87S


$$

NCZ011>013-027>030-043-044-078>080-089-090>093-098-270400-
COASTAL PLAIN

CITY           SKY/WX    TMP DP  RH WIND       PRES   REMARKS
AHOSKIE          N/A     63  62  97 CALM      29.85S
CLINTON        CLEAR     70  64  83 S3        29.85S
ELIZABETHTOWN  CLEAR     69  63  81 S5        29.86R
GOLDSBORO      CLEAR     71  69  92 S5        29.83R
GREENVILLE     CLEAR     70  66  88 S6        29.88R
HAVELOCK       CLEAR     70  65  84 S8        29.88R
KENANSVILLE    CLEAR     68  63  83 S3        29.86R
KINSTON        CLEAR     70  64  82 CALM      29.86S
NEW BERN       CLEAR     68  66  93 S6        29.88R
RICHLANDS      CLEAR     68  64  87 S7        29.87R
ROCKY MOUNT    CLEAR     64  64 100 CALM      29.83S
WASHINGTON     CLEAR     67  64  89 SE5       29.86S
WHITEVILLE     CLEAR     69  61  76 S7        29.86R

$$

AMZ130-135-150-152-154-156-158-170-250-252-270-ANZ085-086-088-633-658-670-270400-
MARINE OBSERVATIONS

STATION/POSITION TIME  TEMP    WIND        PRES    WAVE   SWELL
                       AIR SEA DIR/SP/G            HT/PER HT/PER
                 (UTC) (F)     (DEG/KT/KT) (MB)    (FT/S) (FT/S)
CHESAPEAKE LIGHT NOT AVBL
64 E VA BEACH    0250   58 56  180/  6/  8 1012.4    5/10   5/10
DUCK             0300   61 60  150/  9/ 10 1010.9
2 E DUCK         0300      61                N/A     4/10   2/12
OREGON INLET     0300   66 68  190/ 11/ 11 1011.5
13E OREGON INLT  0248      60                N/A     5/11   5/11
HATTERAS CG      0300   71 69  200/  6/  8 1011.8
DIAMOND BUOY     0250   75 77  220/ 16/ 19 1012.0    6/ 9   5/ 9
CAPE LOOKOUT     0300   71     210/  7/  9 1011.7
BEAUFORT LAB     0300   71 67  210/  8/ 10 1011.2
30 SE NEW RVR IN 0308   71     220/ 14/ 17 1012.2
30 SE NEW RVR IN 0243      71                N/A     4/ 8   2/13
27 SE WRIGHTSVLE 0308   72 72  200/ 14/ 19 1011.5
5 SE WRIGHTSVLE  0308   71 70  200/ 10/ 17 1011.7
225 S CAPE HAT   0250   75 75  200/ 14/ 16 1014.9    6/ 9   5/ 9
41 SE CHARLESTON 0310   74 73  180/ 14/ 17 1012.0

$$




USA.gov is the U.S. government's official web portal to all federal, state and local government web resources and services.